Regional Weather Roundup
Issued by NWS

Home | Current Version | Previous Version | Graphics & Text | Print | Product List | Glossary On
Versions: 1 2 3 4 5 6 7 8 9 10 11 12 13 14 15 16 17 18 19 20 21 22 23 24 25 26 27 28 29 30 31 32 33 34 35 36 37 38 39 40 41 42 43 44 45 46 47 48 49 50
843
ASUS44 KJAN 300810
RWRMS

MISSISSIPPI HOURLY WEATHER ROUNDUP
NATIONAL WEATHER SERVICE JACKSON MS
300 AM CDT SAT AUG 30 2014

NOTE: "FAIR: INDICATES FEW OR NO CLOUDS BELOW 12,000 FEET WITH NO
SIGNIFICANT WEATHER AND/OR OBSTRUCTIONS TO VISIBILITY.

MSZ001>002-007>008-010>013-018>021-025>028-034>036-300900-
NORTHWEST MISSISSIPPI

CITY           SKY/WX    TMP DP  RH WIND       PRES   REMARKS
CLARKSDALE     FAIR      77  73  88 CALM      30.00S
CLEVELAND      FAIR      76  74  95 S3        29.99F
GREENWOOD      CLOUDY    76  71  85 SW6       30.01S
GREENVILLE     CLOUDY    77  74  90 S6        29.99S
GRENADA        FAIR      77  68  73 CALM      30.01S
OLIVE BRANCH   CLEAR     73  73 100 S7        30.00S
OXFORD         FAIR      75  66  73 CALM      30.03S
TUNICA         PTSUNNY   75  72  88 S6        29.99S
$$

MSZ003>006-009-014>017-022>024-029>033-037>039-300900-
NORTHEAST MISSISSIPPI

CITY           SKY/WX    TMP DP  RH WIND       PRES   REMARKS
BELMONT        FAIR      71  67  88 CALM      30.04S
COLUMBUS AFB   CLOUDY    75  68  79 SE6       30.03R
CORINTH        FAIR      72  66  83 CALM      30.02S
GOLDN TRIANGLE CLOUDY    79  66  65 S5        30.04R
STARKVILLE     FAIR      73  68  83 CALM      30.03S
TUPELO         CLOUDY    77  68  73 CALM      30.02S
$$

MSZ040-058-300900-
CENTRAL MISSISSIPPI

CITY           SKY/WX    TMP DP  RH WIND       PRES   REMARKS
JACKSON INTL   CLOUDY    76  72  87 S6        30.01F
JACKSON HAWKNS CLOUDY    76  71  85 S8        30.02F
MERIDIAN KEY   CLOUDY    76  72  87 S5        30.04F
MERIDIAN NAS   CLOUDY    77  71  82 S5        30.05S
RAYMOND        FAIR      75  70  83 MISG      30.01S
VICKSBURG      CLOUDY    76  73  91 S3        30.00S
$$

MSZ059>079-300900-
SOUTH MISSISSIPPI

CITY           SKY/WX    TMP DP  RH WIND       PRES   REMARKS
BROOKHAVEN     FAIR      75  73  94 SE3       30.03F
COLUMBIA       PTSUNNY   73  73 100 CALM      30.01S
HATTIESBURG    CLOUDY    76  74  93 CALM      30.03F
MCCOMB         CLOUDY    75  72  90 SE3       30.02S
NATCHEZ        CLOUDY    75  72  88 SE7       30.01S
PINE BELT      CLOUDY    73  72  94 CALM      30.04F
$$

MSZ080>082-300900-
COASTAL MISSISSIPPI

CITY           SKY/WX    TMP DP  RH WIND       PRES   REMARKS
BILOXI         MOCLDY    82  77  84 S7        30.01F HX  90
PASCAGOULA     MOCLDY    78  75  90 CALM      30.02F
GULFPORT       MOCLDY    82  77  84 S6        30.00F HX  90
$$



USA.gov is the U.S. government's official web portal to all federal, state and local government web resources and services.